Other Public Products
Issued by NWS Grand Forks, ND

Home | Current Version | Previous Version | Graphics & Text | Print | Product List | Glossary On
Versions: 1 2 3 4 5 6 7 8 9 10 11 12 13 14 15 16 17 18 19 20 21 22 23 24 25 26 27 28 29 30 31 32 33 34 35 36 37 38 39 40 41 42 43 44 45 46 47 48 49 50
000
FPUS83 KFGF 010931
OPUFGF
PRAIRIE TO PINES WEATHER ROUNDUP
NATIONAL WEATHER SERVICE EASTERN NORTH DAKOTA/GRAND FORKS ND
300 AM CST SUN MAR 01 2015

 **SATELLITE DATA USED TO AUGMENT SKY COVER AT AUTOMATED STATIONS**
 *****  WEATHER ACROSS EASTERN NORTH DAKOTA  *****

CITY           SKY/WX    TMP DP  RH WIND       PRES   REMARKS
GRAND FORKS    CLEAR      2  -3  80 W7        30.16S WCI -11
GRAND FORKS AF CLEAR      4  -2  74 W9        30.16S WCI -10
GRAND CITY NWS   N/A      1 N/A N/A W6          N/A  WCI -10
BUXTON         NOT AVBL
DEVILS LAKE    PTCLDY     1  -6  71 W12       30.11S WCI -15
FARGO          CLEAR      2  -4  76 SW6       30.21F WCI  -9
WAHPETON ARPT  SUNNY      1  -4  78 W9        30.24R WCI -14
$$

 *****  WEATHER ACROSS CENTRAL AND WESTERN NORTH DAKOTA  *****

CITY           SKY/WX    TMP DP  RH WIND       PRES   REMARKS
JAMESTOWN      CLEAR      1  -4  79 W6        30.15F WCI -10
BISMARCK       CLEAR      3  -1  83 SW7       30.19S WCI  -9
MINOT          LGT SNOW  10   2  69 SW13      30.10F WCI  -5
MINOT AFB      MIX PCPN   8   3  78 W10       30.10F WCI  -6
GARRISON         N/A      3  -1  83 W8        30.13S WCI -10
WILLISTON      CLOUDY    11   5  77 SW3       30.14S
DICKINSON      PTCLDY    11   3  70 W12       30.10F WCI  -3
HETTINGER      CLEAR      2  -2  83 W7        30.15F WCI -11
$$

 *****  OTHER OBSERVATIONS NORTHEAST NORTH DAKOTA  *****

CITY           SKY/WX    TMP DP  RH WIND       PRES   REMARKS
WALHALLA         N/A      5   0  78 W5        30.09F WCI  -4
LANGDON        NOT AVBL
CAVALIER       FAIR       3   0  85 W9        30.10F WCI -11
GRAFTON        NOT AVBL
CANDO          PTSUNNY   -2  -8  78 W9        30.09F WCI -18
FORT TOTTEN      N/A      2  -4  77 W5        29.95S WCI  -8
ROLLA          CLOUDY     7   1  78 W13       30.04F WCI  -9
RUGBY          FAIR       0  -4  85 W7        30.10F WCI -13
 ***** THE ABOVE OBSERVATIONS ARE NON NWS ARE NOT QUALITY
        CONTROLLED AND MAY MIS-REPORT RAIN FOR SNOW...
$$

 *****  OTHER OBSERVATIONS SOUTHEAST NORTH DAKOTA *****

CITY           SKY/WX    TMP DP  RH WIND       PRES   REMARKS
COOPERSTOWN    NOT AVBL
VALLEY CITY    FAIR       0  -2  92 W10       30.16F WCI -17
OAKES            N/A      1   0  92 SW6       30.21S WCI -10
GWINNER        SUNNY      7   0  72 SW12      30.22R WCI  -9
SHEYENNE NWR     N/A     -4  -9  79 W5        29.95S WCI -15
BUFFALO        NOT AVBL
WYNDMERE         N/A      3   0  85 W8          N/A  WCI -10
 ***** THE ABOVE OBSERVATIONS ARE NON NWS ARE NOT QUALITY
       CONTROLLED AND MAY MIS-REPORT RAIN FOR SNOW...
$$

  *****  WEATHER ACROSS NORTHERN MINNESOTA  *****

CITY           SKY/WX    TMP DP  RH WIND       PRES   REMARKS
FLAG ISLAND    CLEAR     -2  -6  84 SW6       30.04S WCI -14
WARROAD        CLEAR      1  -2  85 SW8       30.07F WCI -12
ROSEAU         CLEAR      0  -6  78 SW9       30.08F WCI -16
HALLOCK        CLEAR     -8 -11  84 S8        30.11F WCI -23
THF RVR FALLS  CLEAR     -6 -17  59 S7        30.13S WCI -20
HALSTAD          N/A     -2  -8  78 S6          N/A  WCI -14
FOSSTON        FLURRIES  -8  -9  92 S8        30.14F WCI -23
BAUDETTE       PTCLDY     4  -1  80 SW7       30.07S WCI  -8
WASKISH        CLOUDY     5   1  85 CALM      30.10F
CROOKSTON      CLEAR     -6  -9  84 S6        30.17F WCI -18
$$
  *****  WEATHER ACROSS CENTRAL AND WEST MINNESOTA  *****

CITY           SKY/WX    TMP DP  RH WIND       PRES   REMARKS
BEMIDJI        FLURRIES   4   0  81 W8        30.12S WCI  -9
PARK RAPIDS    CLEAR      3  -2  79 W12       30.12F WCI -13
WADENA         PTCLDY     5   1  85 W5        30.15F WCI  -4
DETROIT LAKES  PTCLDY     3   1  92 W6        30.16S WCI  -8
MOORHEAD       CLEAR      1   0  92 SW6       30.21S WCI -10
FERGUS FALLS   CLEAR      0  -6  78 W6        30.25S WCI -12
ELBOW LAKE     FAIR       4  -1  82 W8        30.21R WCI -10
MORRIS MN      CLEAR      7   1  78 W7        30.22S WCI  -5
STAPLES        PTCLDY     9   5  85 W7        30.16R WCI  -3
WHEATON        NOT AVBL
$$
  *****  WEATHER ELSEWHERE ACROSS MINNESOTA  *****

CITY           SKY/WX    TMP DP  RH WIND       PRES   REMARKS
DULUTH         LGT SNOW  11   5  77 SW14      30.13F WCI  -5
INTRNTL FALLS  MOCLDY    14   8  77 W10       30.05F WCI   1
ELY            MOCLDY    10   7  85 SW8       30.07F WCI  -1
CLOQUET        FLURRIES  10   7  85 S12G17    30.14F WCI  -4
BRAINERD       CLOUDY    14  10  84 S8        30.15F WCI   3
HIBBING        LGT SNOW  13   7  77 SW9       30.09F WCI   1
ALEXANDRIA     PTCLDY    10   4  76 W12       30.17S WCI  -5
SAINT CLOUD    CLOUDY    13  10  88 S7        30.19F WCI   3
MINNEAPOLIS    CLOUDY    16  10  77 S7        30.25F WCI   6
$$

  *****  WEATHER ACROSS SOUTH DAKOTA  *****

CITY           SKY/WX    TMP DP  RH WIND       PRES   REMARKS
SIOUX FALLS    PTCLDY    13   9  84 W3        30.25R
BROOKINGS      NOT AVBL
WATERTOWN      PTCLDY     3  -2  79 W6        30.20F WCI  -8
HURON          MOCLDY     3   0  87 W3        30.27S
SISSETON         N/A      8   2  76 W9        30.24R WCI  -5
ABERDEEN       PTCLDY     1  -3  83 SW6       30.26F WCI -10
MITCHELL       CLEAR     11   6  81 SW5       30.29S WCI   3
PIERRE         PTCLDY    11   3  70 W8        30.24F WCI  -1
MOBRIDGE       MOCLDY     5   1  83 SE5       30.19S WCI  -4
RAPID CITY     CLOUDY    14  10  84 SW6       30.19S WCI   5
$$

  *****  SOME WEATHER IN NEARBY STATES *****

CITY           SKY/WX    TMP DP  RH WIND       PRES   REMARKS
GLASGOW MT     CLOUDY    18  14  84 NW10      30.18R WCI   6
GREAT FALLS MT MOCLDY    15   9  76 SW8       30.25R WCI   4
CHEYENNE WY    LGT SNOW  17  12  80 N6        30.00R WCI   9
SCOTTSBLUFF NE MOCLDY    21  12  68 NE8       30.14R WCI  11
OMAHA NE       CLOUDY    22  14  71 SW8       30.34F WCI  12
DES MOINES IA  FLURRIES  21  16  81 S5        30.35F WCI  15
DAVENPORT IA   CLOUDY     7   3  84 CALM      30.39F FOG
CHICAGO IL     MOCLDY    13   9  84 S3        30.39F FOG
EAU CLAIRE WI  FLURRIES  13   5  70 S8        30.30F WCI   2
LA CROSSE WI   PTCLDY    11   5  77 S7        30.36F WCI   0
$$

  *****  SOME NATIONAL WEATHER *****

CITY           SKY/WX    TMP DP  RH WIND       PRES   REMARKS
LA GUARDIA NY  PTCLDY    24   4  42 CALM      30.68F
RALEIGH NC     CLOUDY    31  16  54 NE5       30.60F
ATLANTA GA     CLOUDY    38  34  85 E15       30.48F
NEW ORLEANS LA CLOUDY    57  55  93 E10       30.27F FOG
OKLAHOMA CITY  FRZ DRZL  28  25  86 CALM      30.31S
ALBUQUERQUE NM CLOUDY    34  31  88 NW3       30.04R
SALT LAKE CITY PTCLDY    32  30  92 S5        29.97R
LOS ANGELES CA MOCLDY    53  47  79 E3        29.92S
BOISE ID       CLEAR     29  22  75 CALM      30.08R
SEATTLE WA     MOCLDY    39  29  67 S5        30.25R
$$

*** WEATHER ACROSS MANITOBA...SASKATCHEWAN AND ONTARIO ***
                ***ONTARIO***

CITY           SKY/WX    TMP DP  RH WIND       PRES   REMARKS
GERALDTON      PTCLDY    10   3  72 S7        30.04F WCI   0
THUNDER BAY    FLURRIES  14   9  79 SW7       30.13F WCI   4
SIOUX LOOKOUT  FLURRIES  12   9  85 S7        29.95F WCI   2
TORONTO        CLOUDY    12   5  73 NE3       30.50F
BIG TROUT LK   MOCLDY     5   0  78 SW7       29.81F WCI  -7
PICKLE LAKE    NOT AVBL
DRYDEN         LGT SNOW  16  12  86 SW12      29.95F WCI   3
KENORA         FLURRIES   3   1  92 SW8       30.00S WCI -10
$$
                *** MANITOBA***

CITY           SKY/WX    TMP DP  RH WIND       PRES   REMARKS
BRANDON        MOCLDY     0  -4  85 W12       30.06S WCI -18
DAUPHIN        FLURRIES   9   3  78 W13       30.06R WCI  -7
ISLAND LAKE    FLURRIES   9   3  78 W9        29.88S WCI  -5
PILOT MOUND      N/A     -2  -6  84 SW7         N/A  WCI -16
THE PAS        CLOUDY     5   3  92 NW8       30.04R WCI  -8
THOMPSON       CLEAR     -6 -11  77 NW6       29.98R WCI -18
WINNIPEG       CLEAR      0  -6  78 W7        30.07S WCI -13
LYNN LAKE      CLEAR     -9 -13  84 NW9       30.00S WCI -27
CHURCHILL      CLEAR    -13 -22  64 NW21G28   29.88S WCI -39
GILLAM         CLEAR     -8 -15  71 NW9       29.94R WCI -25
$$
                ***SASKATCHEWAN***

CITY           SKY/WX    TMP DP  RH WIND       PRES   REMARKS
ESTEVAN        PTCLDY     9   5  85 W12       30.09S WCI  -6
KINDERSLEY     PTCLDY     9   5  85 NW9       30.20R WCI  -5
LLOYDMINSTER   CLEAR      5   3  92 W10       30.18R WCI -10
PRINCE ALBERT  PTCLDY     5   3  92 W6        30.14R WCI  -6
REGINA         CRYSTALS   3   1  92 NW6       30.12R WCI  -8


USA.gov is the U.S. government's official web portal to all federal, state and local government web resources and services.